FW5414 Weather Reports


time (UTC)temp
C
wind
direction
speed
KPH
gust
KPH
rain 1hr
cm
rain 24hr
cm
rain mn
cm
humidity
%
barometer
mb
20260508012922 11 180 3.2 8.0 0.00 0.00 0.00 84 1013.0
20260508012409 12 112 1.6 8.0 0.00 0.00 0.00 84 1013.0
20260508011906 12 270 3.2 3.2 0.00 0.00 0.00 86 1013.0
20260508011407 12 180 0.0 0.0 0.00 0.00 0.00 86 1013.0
20260508010906 12 112 0.0 0.0 0.00 0.00 0.00 83 1013.0
20260508010409 12 112 0.0 3.2 0.00 0.00 0.00 84 1013.0
20260508005906 12 51 0.0 3.2 0.00 0.00 0.00 84 1013.0
20260508004907 12 112 0.0 0.0 0.00 0.00 0.00 86 1013.0
20260508004406 12 112 0.0 3.2 0.00 0.00 0.00 86 1013.0
20260508003906 12 112 1.6 3.2 0.00 0.00 0.00 87 1013.0
20260508002909 12 202 1.6 4.8 0.00 0.00 0.00 87 1014.0
20260508002407 12 183 3.2 4.8 0.00 0.00 0.00 86 1014.0
20260508001906 12 165 1.6 9.7 0.00 0.00 0.00 86 1014.0
20260508001410 12 202 4.8 9.7 0.00 0.00 0.00 86 1013.0
20260508000909 12 183 4.8 9.7 0.00 0.00 0.00 83 1013.0
20260508000406 13 248 0.0 3.2 0.00 0.00 0.00 81 1013.0
20260507234909 13 2 3.2 8.0 0.00 0.00 0.00 81 1012.0
20260507234407 13 112 1.6 8.0 0.00 0.00 0.00 81 1012.0
20260507233908 13 47 3.2 8.0 0.00 0.00 0.00 81 1012.0
20260507233409 13 50 0.0 3.2 0.00 0.00 0.00 81 1012.0
20260507231906 13 68 3.2 4.8 0.00 0.00 0.00 81 1013.0
20260507231406 13 180 0.0 0.0 0.00 0.00 0.00 79 1014.0
20260507230906 13 180 0.0 0.0 0.00 0.00 0.00 80 1014.0
20260507230406 13 180 0.0 3.2 0.00 0.00 0.00 80 1014.0
20260507224908 13 158 3.2 3.2 0.00 0.00 0.00 78 1014.0
20260507224407 14 180 0.0 4.8 0.00 0.00 0.00 79 1014.0
20260507223407 15 250 3.2 3.2 0.00 0.00 0.00 73 1014.0
20260507222906 15 247 1.6 4.8 0.00 0.00 0.00 72 1013.0
20260507221907 16 76 4.8 8.0 0.00 0.00 0.00 73 1013.0
20260507221406 16 90 4.8 8.0 0.00 0.00 0.00 74 1013.0
20260507220406 16 68 3.2 8.0 0.00 0.00 0.00 74 1013.0
20260507215906 16 90 4.8 8.0 0.00 0.00 0.00 73 1013.0
20260507215406 16 68 3.2 4.8 0.00 0.00 0.00 72 1013.0
20260507214906 16 45 0.0 3.2 0.00 0.00 0.00 70 1013.0
20260507214406 16 338 0.0 3.2 0.00 0.00 0.00 70 1014.0
20260507213906 16 287 1.6 4.8 0.00 0.00 0.00 69 1014.0
20260507213406 16 158 3.2 4.8 0.00 0.00 0.00 69 1014.0
20260507212907 16 135 3.2 4.8 0.00 0.00 0.00 70 1013.0
20260507212406 16 180 3.2 8.0 0.00 0.00 0.00 70 1013.0
20260507211909 16 225 0.0 8.0 0.00 0.00 0.00 70 1013.0
20260507211408 16 147 3.2 8.0 0.00 0.00 0.00 69 1014.0
20260507210906 16 158 3.2 8.0 0.00 0.00 0.00 70 1014.0
20260507204906 16 162 4.8 9.7 0.00 0.00 0.00 69 1013.0
20260507204406 16 180 4.8 14.5 0.00 0.00 0.00 70 1014.0
20260507203906 17 158 8.0 14.5 0.00 0.00 0.00 68 1014.0
20260507203406 17 163 9.7 14.5 0.00 0.00 0.00 67 1014.0
20260507202906 17 193 9.7 14.5 0.00 0.00 0.00 67 1013.0
20260507202406 17 198 4.8 12.9 0.00 0.00 0.00 70 1013.0
20260507201906 17 138 9.7 14.5 0.00 0.00 0.00 69 1013.0
20260507201409 17 136 11.3 14.5 0.00 0.00 0.00 69 1013.0
20260507200906 17 128 11.3 16.1 0.00 0.00 0.00 69 1013.0
20260507200409 16 111 11.3 16.1 0.00 0.00 0.00 69 1013.0
20260507195906 16 121 11.3 14.5 0.00 0.00 0.00 70 1013.0
20260507195406 16 120 11.3 14.5 0.00 0.00 0.00 70 1013.0
20260507194406 16 132 8.0 11.3 0.00 0.00 0.00 69 1013.0
20260507193906 16 139 4.8 9.7 0.00 0.00 0.00 68 1013.0
20260507193406 16 125 4.8 9.7 0.00 0.00 0.00 68 1013.0
20260507192413 17 123 6.4 9.7 0.00 0.00 0.00 68 1013.0
20260507191906 17 141 8.0 9.7 0.00 0.00 0.00 67 1013.0
20260507191406 17 131 4.8 9.7 0.00 0.00 0.00 66 1013.0
20260507190906 17 130 8.0 12.9 0.00 0.00 0.00 68 1013.0
20260507190421 17 138 8.0 12.9 0.00 0.00 0.00 66 1013.0
20260507185909 17 121 11.3 12.9 0.00 0.00 0.00 66 1013.0
20260507184906 17 134 4.8 11.3 0.00 0.00 0.00 64 1013.0
20260507183906 18 126 8.0 11.3 0.00 0.00 0.00 63 1013.0
20260507183408 18 127 6.4 8.0 0.00 0.00 0.00 61 1013.0
20260507181909 18 112 4.8 8.0 0.00 0.00 0.00 59 1013.0
20260507181406 20 123 3.2 4.8 0.00 0.00 0.00 55 1013.0
20260507180906 20 112 3.2 3.2 0.00 0.00 0.00 54 1013.0
20260507180406 20 112 3.2 3.2 0.00 0.00 0.00 53 1013.0
20260507175906 20 112 1.6 3.2 0.00 0.00 0.00 53 1013.0
20260507175406 21 112 3.2 3.2 0.00 0.00 0.00 52 1013.0
20260507174906 21 68 0.0 3.2 0.00 0.00 0.00 51 1013.0
20260507173913 21 39 1.6 8.0 0.00 0.00 0.00 49 1012.0
20260507173406 21 49 3.2 8.0 0.00 0.00 0.00 49 1012.0
20260507172405 22 31 3.2 9.7 0.00 0.00 0.00 48 1013.0
20260507171906 22 49 3.2 11.3 0.00 0.00 0.00 47 1013.0
20260507171406 22 49 4.8 11.3 0.00 0.00 0.00 47 1013.0
20260507170907 22 59 4.8 11.3 0.00 0.00 0.00 47 1013.0
20260507170406 22 37 3.2 9.7 0.00 0.00 0.00 48 1013.0
20260507165917 22 19 4.8 9.7 0.00 0.00 0.00 47 1013.0
20260507164906 22 68 1.6 4.8 0.00 0.00 0.00 47 1013.0
20260507164407 22 91 1.6 4.8 0.00 0.00 0.00 47 1013.0
20260507163917 22 68 1.6 9.7 0.00 0.00 0.00 48 1013.0
20260507163406 22 51 3.2 9.7 0.00 0.00 0.00 47 1013.0
20260507162906 22 90 4.8 9.7 0.00 0.00 0.00 47 1013.0
20260507162408 22 81 4.8 9.7 0.00 0.00 0.00 47 1013.0
20260507161909 22 68 4.8 11.3 0.00 0.00 0.00 47 1013.0
20260507161406 22 78 8.0 12.9 0.00 0.00 0.00 46 1013.0
20260507160906 23 72 4.8 12.9 0.00 0.00 0.00 46 1013.0
20260507155905 23 5 1.6 4.8 0.00 0.00 0.00 45 1012.0
20260507154411 22 163 1.6 4.8 0.00 0.00 0.00 45 1012.0
20260507153907 22 135 3.2 4.8 0.00 0.00 0.00 46 1012.0
20260507153409 23 150 0.0 8.0 0.00 0.00 0.00 45 1012.0
20260507152405 22 45 1.6 8.0 0.00 0.00 0.00 46 1013.0
20260507151906 22 28 4.8 9.7 0.00 0.00 0.00 45 1013.0
20260507151406 22 292 4.8 9.7 0.00 0.00 0.00 45 1012.0
20260507150406 22 290 3.2 9.7 0.00 0.00 0.00 46 1012.0
20260507145406 21 307 4.8 11.3 0.00 0.00 0.00 45 1013.0
20260507144906 21 292 4.8 11.3 0.00 0.00 0.00 44 1013.0
20260507144407 22 281 8.0 14.5 0.00 0.00 0.00 44 1013.0
20260507143906 22 307 4.8 14.5 0.00 0.00 0.00 45 1013.0
20260507143405 22 321 8.0 14.5 0.00 0.00 0.00 43 1013.0
20260507142906 22 115 3.2 16.1 0.00 0.00 0.00 46 1013.0
20260507141906 23 326 3.2 9.7 0.00 0.00 0.00 44 1013.0
20260507141408 23 349 4.8 11.3 0.00 0.00 0.00 42 1014.0
20260507140907 23 312 4.8 11.3 0.00 0.00 0.00 43 1014.0
20260507140406 23 289 4.8 12.9 0.00 0.00 0.00 44 1014.0
20260507135907 22 293 9.7 12.9 0.00 0.00 0.00 45 1014.0
20260507135406 23 280 4.8 8.0 0.00 0.00 0.00 48 1014.0
20260507134408 22 301 4.8 11.3 0.00 0.00 0.00 48 1014.0
20260507133906 22 294 6.4 14.5 0.00 0.00 0.00 48 1014.0
20260507133406 22 301 3.2 14.5 0.00 0.00 0.00 48 1014.0
20260507132906 22 270 6.4 14.5 0.00 0.00 0.00 48 1014.0
20260507132405 22 292 1.6 11.3 0.00 0.00 0.00 48 1014.0
20260507131906 22 328 3.2 9.7 0.00 0.00 0.00 48 1014.0
20260507131405 22 359 4.8 12.9 0.00 0.00 0.00 48 1015.0
20260507130907 22 295 8.0 12.9 0.00 0.00 0.00 47 1015.0
20260507130406 22 320 9.7 12.9 0.00 0.00 0.00 46 1015.0
20260507125410 22 297 9.7 12.9 0.00 0.00 0.00 47 1015.0
20260507124906 22 288 9.7 12.9 0.00 0.00 0.00 46 1015.0
20260507124406 22 334 6.4 16.1 0.00 0.00 0.00 47 1014.0
20260507123406 23 290 3.2 14.5 0.00 0.00 0.00 48 1014.0
20260507122909 22 188 3.2 14.5 0.00 0.00 0.00 49 1015.0
20260507122406 22 288 11.3 14.5 0.00 0.00 0.00 48 1015.0
20260507121905 22 314 4.8 12.9 0.00 0.00 0.00 50 1015.0
20260507120908 22 67 4.8 12.9 0.00 0.00 0.00 49 1015.0
20260507115909 22 310 3.2 14.5 0.00 0.00 0.00 51 1015.0
20260507115407 22 266 8.0 14.5 0.00 0.00 0.00 52 1015.0
20260507114405 22 291 8.0 14.5 0.00 0.00 0.00 52 1016.0
20260507113905 23 246 4.8 8.0 0.00 0.00 0.00 55 1016.0
20260507113405 22 221 3.2 8.0 0.00 0.00 0.00 56 1016.0
20260507112909 21 221 3.2 9.7 0.00 0.00 0.00 56 1015.0
20260507112405 22 78 1.6 12.9 0.00 0.00 0.00 59 1015.0
20260507111406 21 312 9.7 12.9 0.00 0.00 0.00 57 1015.0
20260507110410 21 255 3.2 8.0 0.00 0.00 0.00 61 1015.0
20260507105905 21 209 4.8 11.3 0.00 0.00 0.00 58 1015.0
20260507105406 21 22 6.4 11.3 0.00 0.00 0.00 61 1015.0
20260507104905 20 339 4.8 9.7 0.00 0.00 0.00 60 1015.0
20260507103905 21 302 4.8 9.7 0.00 0.00 0.00 63 1015.0
20260507103405 20 259 3.2 9.7 0.00 0.00 0.00 67 1015.0
20260507102905 20 170 3.2 9.7 0.00 0.00 0.00 66 1015.0
20260507101405 19 290 4.8 9.7 0.00 0.00 0.00 67 1015.0
20260507100406 18 254 6.4 9.7 0.00 0.00 0.00 68 1015.0
20260507095906 19 293 6.4 9.7 0.00 0.00 0.00 67 1015.0
20260507095405 19 52 1.6 8.0 0.00 0.00 0.00 69 1015.0
20260507094906 19 68 1.6 8.0 0.00 0.00 0.00 68 1015.0
20260507094405 19 188 1.6 9.7 0.00 0.00 0.00 68 1015.0
20260507093905 19 328 4.8 9.7 0.00 0.00 0.00 67 1015.0
20260507091905 18 178 3.2 8.0 0.00 0.00 0.00 70 1015.0
20260507091410 18 273 1.6 8.0 0.00 0.00 0.00 74 1015.0
20260507090905 18 333 1.6 8.0 0.00 0.00 0.00 75 1015.0
20260507090407 18 338 1.6 8.0 0.00 0.00 0.00 76 1015.0
20260507085905 18 358 1.6 4.8 0.00 0.00 0.00 76 1015.0
20260507085405 17 267 3.2 14.5 0.00 0.00 0.00 75 1015.0
20260507084905 17 335 1.6 14.5 0.00 0.00 0.00 76 1015.0
20260507084421 17 254 6.4 14.5 0.00 0.00 0.00 75 1015.0
20260507083905 17 302 3.2 14.5 0.00 0.00 0.00 76 1015.0
20260507083407 18 296 8.0 14.5 0.00 0.00 0.00 76 1015.0
20260507082905 17 277 4.8 12.9 0.00 0.00 0.00 78 1015.0
20260507082405 17 237 8.0 12.9 0.00 0.00 0.00 76 1015.0
20260507081905 18 252 4.8 12.9 0.00 0.00 0.00 76 1015.0
20260507080907 17 180 6.4 9.7 0.00 0.00 0.00 79 1015.0
20260507080405 17 215 3.2 9.7 0.00 0.00 0.00 78 1015.0
20260507075905 17 194 3.2 11.3 0.00 0.00 0.00 79 1015.0
20260507075407 17 212 3.2 11.3 0.00 0.00 0.00 79 1015.0
20260507074905 17 205 4.8 9.7 0.00 0.00 0.00 79 1015.0
20260507074412 17 216 6.4 9.7 0.00 0.00 0.00 80 1015.0
20260507073905 17 240 3.2 12.9 0.00 0.00 0.00 80 1015.0
20260507073408 17 231 3.2 12.9 0.00 0.00 0.00 81 1015.0
20260507072907 17 267 3.2 12.9 0.00 0.00 0.00 80 1015.0
20260507071905 16 246 4.8 9.7 0.00 0.00 0.00 81 1015.0
20260507071406 17 184 3.2 9.7 0.00 0.00 0.00 83 1015.0
20260507070906 16 250 3.2 11.3 0.00 0.00 0.00 84 1015.0
20260507070406 16 255 3.2 11.3 0.00 0.00 0.00 84 1015.0
20260507065905 16 251 4.8 9.7 0.00 0.00 0.00 84 1015.0
20260507065405 16 202 3.2 9.7 0.00 0.00 0.00 86 1015.0
20260507064408 16 248 1.6 8.0 0.00 0.00 0.00 86 1014.0
20260507063907 15 238 3.2 8.0 0.00 0.00 0.00 86 1014.0
20260507063405 15 183 0.0 1.6 0.00 0.00 0.00 87 1014.0
20260507062905 15 189 0.0 4.8 0.00 0.00 0.00 87 1014.0
20260507062405 15 180 3.2 8.0 0.00 0.00 0.00 87 1014.0
20260507061405 16 180 0.0 1.6 0.00 0.00 0.00 89 1015.0
20260507060905 15 180 0.0 4.8 0.00 0.00 0.00 89 1015.0
20260507060406 15 183 0.0 4.8 0.00 0.00 0.00 89 1015.0
20260507055905 15 225 0.0 3.2 0.00 0.00 0.00 89 1014.0
20260507055405 15 261 1.6 4.8 0.00 0.00 0.00 90 1014.0
20260507054905 15 248 0.0 4.8 0.00 0.00 0.00 90 1014.0
20260507054405 15 225 0.0 0.0 0.00 0.00 0.00 90 1014.0
20260507053905 15 225 0.0 0.0 0.00 0.00 0.00 91 1014.0
20260507053405 15 158 0.0 3.2 0.00 0.00 0.00 91 1014.0
20260507052905 14 270 0.0 4.8 0.00 0.00 0.00 91 1014.0
20260507051905 14 248 3.2 4.8 0.00 0.00 0.00 92 1014.0
20260507051405 14 267 1.6 4.8 0.00 0.00 0.00 92 1015.0
20260507050405 14 225 1.6 4.8 0.00 0.00 0.00 92 1015.0
20260507045906 14 223 1.6 4.8 0.00 0.00 0.00 92 1015.0
20260507045405 13 269 4.8 8.0 0.00 0.00 0.00 92 1015.0
20260507044405 14 232 3.2 8.0 0.00 0.00 0.00 94 1015.0
20260507043906 14 226 3.2 9.7 0.00 0.00 0.00 94 1015.0
20260507042905 13 243 4.8 9.7 0.00 0.00 0.00 94 1015.0
20260507041905 13 224 3.2 8.0 0.00 0.00 0.00 94 1015.0
20260507040905 13 240 3.2 4.8 0.00 0.00 0.00 95 1015.0
20260507040405 13 245 1.6 4.8 0.00 0.00 0.00 95 1015.0
20260507035405 14 225 0.0 8.0 0.00 0.00 0.00 95 1015.0
20260507034905 14 248 0.0 8.0 0.00 0.00 0.00 95 1015.0
20260507033905 14 212 1.6 4.8 0.00 0.00 0.00 95 1015.0
20260507033405 14 202 0.0 3.2 0.00 0.00 0.00 94 1015.0
20260507032905 14 201 1.6 3.2 0.00 0.00 0.00 94 1015.0
20260507032405 13 202 0.0 3.2 0.00 0.00 0.00 94 1015.0
20260507031904 13 234 1.6 8.0 0.00 0.00 0.00 94 1015.0
20260507031406 13 225 0.0 8.0 0.00 0.00 0.00 93 1015.0
20260507030904 13 243 3.2 8.0 0.00 0.00 0.00 92 1015.0
20260507030405 14 214 3.2 8.0 0.00 0.00 0.00 92 1015.0
20260507025405 14 247 1.6 9.7 0.00 0.00 0.00 92 1014.0
20260507024905 14 237 3.2 9.7 0.00 0.00 0.00 92 1014.0
20260507023405 14 247 3.2 8.0 0.00 0.00 0.00 92 1014.0
20260507022905 14 240 3.2 4.8 0.00 0.00 0.00 91 1015.0
20260507022405 14 248 3.2 4.8 0.00 0.00 0.00 91 1015.0
20260507021905 14 248 0.0 3.2 0.00 0.00 0.00 91 1015.0
20260507021405 14 260 1.6 3.2 0.00 0.00 0.00 91 1015.0
20260507020906 14 248 1.6 3.2 0.00 0.00 0.00 91 1015.0
20260507020410 14 256 3.2 4.8 0.00 0.00 0.00 91 1015.0
20260507015905 14 236 1.6 8.0 0.00 0.00 0.00 91 1015.0
20260507014907 14 286 3.2 4.8 0.00 0.00 0.00 91 1015.0
20260507014407 14 292 3.2 4.8 0.00 0.00 0.00 92 1014.0
20260507013912 14 257 1.6 4.8 0.00 0.00 0.00 92 1014.0
20260507013406 14 248 3.2 8.0 0.00 0.00 0.00 94 1014.0